Total_Precipitation_Accumulation
1.84 2.31 2.82 3.28 4.00 4.98 6.00 6.46 6.34 5.78 5.31 4.95 4.66 4.42 4.06 3.74 3.60 3.30 2.99 2.96 2.94 2.98 3.30 3.00 3.41 3.43 3.55 3.57 3.53 3.71 3.68 3.53 3.74 4.33 4.32 3.80 3.43 3.36 3.20 3.06 3.19 3.01 2.99
1.90 2.41 2.99 3.36 3.70 4.30 5.14 5.55 5.27 4.72 4.12 3.94 3.88 3.86 3.78 3.35 3.12 3.06 3.07 2.75 2.78 2.91 3.03 3.23 3.09 3.18 3.40 3.28 3.24 3.58 3.55 3.20 3.39 4.04 4.37 4.17 4.14 3.76 3.02 3.05 3.16 3.12 3.19
1.69 2.41 2.98 3.25 3.51 3.80 3.89 4.05 4.00 3.59 3.31 3.26 3.26 3.30 3.51 3.29 2.99 2.90 2.86 2.63 2.55 2.59 2.79 2.90 3.04 3.20 3.07 3.18 3.28 3.37 3.50 3.43 3.34 3.49 4.14 4.12 3.96 3.80 3.44 3.06 2.99 3.14 3.37
1.54 2.28 2.61 2.75 2.80 2.89 2.79 2.89 3.01 2.96 2.98 2.94 2.98 2.86 2.74 2.75 2.64 2.63 2.60 2.59 2.47 2.40 2.35 2.52 2.82 2.98 2.92 3.20 2.95 3.09 3.43 3.56 3.33 3.37 3.47 3.50 3.63 3.81 3.61 3.20 2.87 2.88 2.94
1.25 1.57 1.71 1.87 1.94 1.99 2.05 2.31 2.69 2.87 2.82 2.78 2.96 2.96 2.62 2.48 2.41 2.43 2.61 2.60 2.47 2.34 2.21 2.33 2.60 2.80 2.89 3.01 3.05 3.37 3.31 3.24 3.24 3.26 3.37 3.51 3.48 3.31 3.35 3.36 3.07 2.85 2.63
0.93 1.12 1.23 1.35 1.43 1.48 1.60 1.87 2.32 2.59 2.59 2.62 2.67 2.61 2.57 2.55 2.50 2.48 2.54 2.43 2.35 2.44 2.53 2.50 2.60 2.62 2.73 2.89 3.03 3.21 3.20 3.17 3.21 3.10 3.04 3.34 3.51 3.49 3.53 3.35 3.05 2.86 2.57
0.84 0.98 1.18 1.28 1.24 1.20 1.31 1.50 1.83 2.02 2.06 2.19 2.36 2.46 2.53 2.51 2.35 2.30 2.29 2.20 2.01 2.13 2.41 2.59 2.69 2.72 2.78 2.81 2.95 2.94 2.95 3.04 3.17 3.09 2.97 2.97 3.03 3.27 3.50 3.52 3.10 2.84 2.55
0.74 0.83 0.98 1.03 1.03 1.09 1.16 1.30 1.46 1.57 1.68 1.79 2.00 2.19 2.24 2.22 2.18 2.35 2.22 2.06 1.83 1.76 1.99 2.29 2.43 2.47 2.48 2.53 3.04 2.81 2.74 2.92 3.01 2.91 3.21 3.04 2.82 3.05 3.25 3.43 3.52 3.27 3.07
0.63 0.66 0.77 0.84 0.88 1.03 1.12 1.16 1.27 1.39 1.52 1.62 1.90 2.07 2.08 2.05 2.09 2.20 2.11 1.90 1.90 1.77 1.85 1.93 2.25 2.41 2.42 2.53 2.82 2.75 2.70 2.87 2.85 2.97 3.22 3.18 2.99 2.97 2.98 3.25 3.64 3.87 3.66
0.56 0.62 0.67 0.76 0.76 0.78 0.93 1.05 1.13 1.33 1.53 1.63 1.70 1.71 1.88 1.87 1.86 1.81 1.77 1.83 1.86 1.81 1.89 2.01 2.04 2.18 2.37 2.54 2.73 2.62 2.60 2.73 2.79 2.98 3.12 3.07 2.93 2.97 2.88 3.00 3.34 3.67 3.76
0.65 0.64 0.71 0.73 0.70 0.69 0.84 1.00 1.12 1.27 1.37 1.38 1.41 1.52 1.62 1.62 1.60 1.59 1.57 1.68 1.73 1.78 1.81 1.91 2.02 2.07 2.20 2.49 2.82 2.73 2.76 2.80 2.79 2.77 2.92 2.98 3.13 3.15 3.02 3.01 3.07 3.27 3.52
0.83 0.81 0.85 0.82 0.80 0.81 0.87 1.00 1.04 1.09 1.14 1.18 1.25 1.33 1.47 1.51 1.52 1.55 1.66 1.77 1.79 1.79 1.73 1.84 1.95 1.91 2.04 2.33 2.63 2.77 2.89 3.01 2.96 2.96 3.10 3.10 3.11 3.06 2.97 3.02 3.03 3.08 3.38
0.86 1.03 1.07 0.94 0.88 0.87 0.91 0.97 0.98 1.01 1.03 1.10 1.15 1.22 1.37 1.55 1.65 1.70 1.75 1.87 1.95 1.93 1.91 1.93 1.90 2.06 2.21 2.29 2.45 2.61 2.66 2.77 2.85 2.98 3.02 2.98 3.08 2.98 2.98 2.86 2.84 2.90 3.08
0.88 1.05 1.19 0.99 0.86 0.82 0.85 0.90 0.90 0.87 0.90 1.09 1.24 1.33 1.54 1.75 1.84 1.86 1.93 1.95 1.99 1.98 2.00 2.02 2.04 2.18 2.28 2.23 2.29 2.43 2.52 2.57 2.63 2.79 2.89 2.94 2.94 2.97 3.12 2.98 2.96 3.12 3.24
0.88 0.93 1.04 1.04 0.93 0.88 0.87 0.91 1.00 1.04 1.07 1.28 1.48 1.68 1.87 1.93 1.98 2.04 2.06 2.12 2.15 2.03 2.12 2.19 2.18 2.21 2.12 2.01 2.26 2.38 2.35 2.54 2.57 2.57 2.56 2.65 2.87 2.93 2.97 2.76 2.94 3.16 3.17
0.92 1.05 1.10 1.09 1.11 1.07 1.07 1.14 1.21 1.32 1.48 1.69 1.84 1.92 1.99 2.04 1.99 2.00 2.02 2.16 2.21 2.26 2.37 2.40 2.42 2.36 2.06 2.23 2.25 2.25 2.37 2.50 2.49 2.49 2.42 2.33 2.35 2.43 2.56 2.59 2.63 2.78 2.91
1.10 1.21 1.26 1.24 1.29 1.30 1.38 1.52 1.50 1.59 1.76 1.94 2.11 2.13 2.10 2.10 2.06 2.10 2.12 2.12 2.25 2.38 2.42 2.41 2.45 2.40 2.38 2.33 2.04 1.96 1.99 2.09 2.12 2.11 2.11 1.90 1.81 2.17 2.22 2.38 2.36 2.25 2.30
1.10 1.23 1.31 1.31 1.28 1.33 1.45 1.70 1.80 1.81 1.96 2.08 2.19 2.26 2.30 2.37 2.43 2.51 2.50 2.55 2.61 2.66 2.61 2.55 2.58 2.63 2.56 2.52 2.15 2.03 1.92 1.92 1.90 1.88 1.85 1.89 1.89 1.94 2.13 2.22 2.17 2.06 2.02
1.21 1.36 1.36 1.32 1.35 1.54 1.63 1.70 1.82 1.85 2.03 2.22 2.38 2.46 2.53 2.59 2.62 2.64 2.77 2.92 3.08 3.15 3.07 3.02 3.06 3.03 3.05 3.03 2.62 2.45 2.19 2.09 1.98 1.99 2.03 2.05 1.90 1.96 2.01 2.06 2.03 1.97 1.98
1.33 1.48 1.53 1.49 1.58 1.86 1.93 2.02 2.11 2.16 2.24 2.34 2.51 2.71 2.87 2.94 2.91 2.98 3.18 3.37 3.54 3.58 3.60 3.61 3.61 3.51 3.45 3.40 2.95 2.76 2.48 2.41 2.34 2.36 2.21 2.10 1.90 1.83 1.79 1.79 1.85 1.77 1.76
1.31 1.46 1.54 1.56 1.63 1.85 2.05 2.34 2.47 2.52 2.53 2.57 2.70 2.87 3.03 3.18 3.22 3.34 3.45 3.64 3.80 3.79 3.74 3.69 3.65 3.51 3.41 3.28 2.93 2.75 2.52 2.54 2.56 2.45 2.32 2.15 1.99 1.76 1.71 1.65 1.65 1.70 1.81
1.39 1.46 1.60 1.68 1.77 1.88 2.14 2.41 2.61 2.75 2.83 2.82 2.98 3.08 3.14 3.00 2.97 3.26 3.49 3.73 3.96 3.92 3.84 3.87 3.71 3.54 3.41 3.13 2.90 2.70 2.54 2.60 2.64 2.56 2.43 2.27 2.13 1.86 1.76 1.60 1.58 1.69 1.67
1.44 1.44 1.51 1.64 1.73 1.80 2.02 2.43 2.59 2.70 2.80 2.89 2.95 3.09 3.12 3.11 3.18 3.41 3.60 3.83 3.94 3.88 3.78 3.75 3.65 3.44 3.23 3.07 2.81 2.56 2.46 2.50 2.45 2.53 2.64 2.43 2.25 2.03 1.86 1.83 1.82 1.71 1.59
1.40 1.49 1.57 1.69 1.77 1.70 1.85 2.05 2.26 2.42 2.51 2.58 2.60 2.60 2.72 2.88 3.13 3.44 3.53 3.61 3.65 3.68 3.66 3.55 3.42 3.36 3.32 3.23 2.94 2.60 2.34 2.31 2.34 2.40 2.51 2.39 2.23 2.01 1.86 1.89 1.84 1.71 1.68
1.35 1.43 1.61 1.62 1.67 1.75 1.76 1.81 1.86 2.06 2.23 2.27 2.28 2.37 2.49 2.68 2.90 3.12 3.27 3.23 3.26 3.48 3.38 3.15 2.97 2.87 2.80 2.86 2.75 2.43 2.26 2.21 2.29 2.37 2.43 2.37 2.25 2.09 1.96 1.89 1.92 1.93 1.88
1.42 1.44 1.52 1.54 1.57 1.69 1.77 1.75 1.86 2.03 2.08 2.02 2.03 2.06 2.13 2.31 2.49 2.64 2.74 2.80 2.59 2.66 2.58 2.41 2.27 2.15 2.12 2.12 1.95 1.78 1.72 1.81 1.99 2.09 2.25 2.30 2.22 2.12 2.06 2.03 2.02 2.00 1.93